Satellite-Ground Cal/Val Site Overpasses Predictions

Prediction of Satellite NPP Overpassing Cal/Val Site: Antarctic Dome C

Ground Cal/Val Site Location: Latitude: -75.10, Longitude: 123.35; Satellite-Ground Site NADIR distance within 100 km.

Table of predicted overpasses for the next 14.0 days since TLE Epoch: 2/23/2018
Interval Starting Time Ending Time Minimum Distance Time Minimum Distance (km)
1 02/23/2018 14:41:59 02/23/2018 14:42:24 02/23/2018 14:42:12 52.41
2 02/24/2018 07:43:40 02/24/2018 07:44:01 02/24/2018 07:43:50 69.63
3 02/25/2018 07:24:46 02/25/2018 07:25:13 02/25/2018 07:25:00 38.50
4 02/27/2018 15:07:10 02/27/2018 15:07:19 02/27/2018 15:07:15 94.05
5 02/28/2018 14:48:10 02/28/2018 14:48:39 02/28/2018 14:48:24 17.30
6 03/02/2018 07:30:58 03/02/2018 07:31:27 03/02/2018 07:31:12 3.47
7 03/05/2018 14:54:22 03/05/2018 14:54:50 03/05/2018 14:54:36 18.81
8 03/06/2018 14:35:40 03/06/2018 14:35:53 03/06/2018 14:35:46 88.12
9 03/07/2018 07:37:11 03/07/2018 07:37:39 03/07/2018 07:37:25 33.51


NCC Satellite Cal/Val Overpasses Prediction Service
